TimeEST,TemperatureF,Dew PointF,Humidity,Sea Level PressureIn,VisibilityMPH,Wind Direction,Wind SpeedMPH,Gust SpeedMPH,PrecipitationIn,Events,Conditions,WindDirDegrees,DateUTC
12:15 AM,29.5,29.5,100,30.40,7.0,Calm,Calm,-,N/A,,Clear,0,2012-11-15 05:15:00
12:35 AM,30.0,30.0,100,30.39,5.0,Calm,Calm,-,N/A,,Clear,0,2012-11-15 05:35:00
12:55 AM,27.9,27.9,100,30.39,5.0,Calm,Calm,-,N/A,,Clear,0,2012-11-15 05:55:00
1:15 AM,27.9,27.9,100,30.37,5.0,Calm,Calm,-,N/A,,Clear,0,2012-11-15 06:15:00
1:35 AM,27.9,27.9,100,30.37,5.0,Calm,Calm,-,N/A,,Clear,0,2012-11-15 06:35:00
1:55 AM,27.9,27.9,100,30.37,4.0,Calm,Calm,-,N/A,,Clear,0,2012-11-15 06:55:00
2:15 AM,27.9,27.9,100,30.37,7.0,Calm,Calm,-,N/A,,Clear,0,2012-11-15 07:15:00
2:35 AM,27.9,27.9,100,30.37,7.0,Calm,Calm,-,N/A,,Clear,0,2012-11-15 07:35:00
2:55 AM,27.9,27.9,100,30.36,7.0,NNE,3.5,-,N/A,,Clear,30,2012-11-15 07:55:00
3:15 AM,27.9,27.9,100,30.36,5.0,NNE,4.6,-,N/A,,Clear,20,2012-11-15 08:15:00
3:35 AM,27.9,27.9,100,30.36,5.0,NNE,3.5,-,N/A,,Clear,30,2012-11-15 08:35:00
3:55 AM,27.9,27.9,100,30.35,4.0,NNE,3.5,-,N/A,,Clear,20,2012-11-15 08:55:00
4:15 AM,27.9,27.9,100,30.35,5.0,Calm,Calm,-,N/A,,Clear,0,2012-11-15 09:15:00
4:35 AM,27.9,27.9,100,30.36,5.0,Calm,Calm,-,N/A,,Clear,0,2012-11-15 09:35:00
4:55 AM,27.9,27.9,100,30.37,5.0,NE,3.5,-,N/A,,Clear,40,2012-11-15 09:55:00
5:15 AM,27.9,27.9,100,30.37,5.0,Calm,Calm,-,N/A,,Clear,0,2012-11-15 10:15:00
5:35 AM,27.9,27.9,100,30.38,4.0,North,4.6,-,N/A,,Clear,10,2012-11-15 10:35:00
5:55 AM,27.9,27.9,100,30.38,4.0,Calm,Calm,-,N/A,,Clear,0,2012-11-15 10:55:00
6:15 AM,26.6,26.6,100,30.38,4.0,Calm,Calm,-,N/A,,Clear,0,2012-11-15 11:15:00
6:35 AM,27.9,27.9,100,30.37,5.0,NE,3.5,-,N/A,,Clear,50,2012-11-15 11:35:00
6:55 AM,27.9,27.9,100,30.38,4.0,North,3.5,-,N/A,,Clear,10,2012-11-15 11:55:00
7:15 AM,27.9,27.9,100,30.39,3.0,North,3.5,-,N/A,,Clear,10,2012-11-15 12:15:00
7:35 AM,25.3,25.3,100,30.40,2.5,Calm,Calm,-,N/A,,Clear,0,2012-11-15 12:35:00
7:55 AM,26.2,26.2,100,30.40,2.5,Calm,Calm,-,N/A,,Clear,0,2012-11-15 12:55:00
8:15 AM,27.9,27.9,100,30.40,3.0,Calm,Calm,-,N/A,,Clear,0,2012-11-15 13:15:00
8:35 AM,28.8,28.8,100,30.40,4.0,Calm,Calm,-,N/A,,Clear,0,2012-11-15 13:35:00
8:55 AM,32.2,31.6,98,30.40,5.0,North,4.6,-,N/A,,Clear,10,2012-11-15 13:55:00
9:15 AM,32.5,32.0,98,30.40,5.0,NNE,3.5,-,N/A,,Clear,30,2012-11-15 14:15:00
9:35 AM,32.5,30.7,93,30.40,7.0,Calm,Calm,-,N/A,,Clear,0,2012-11-15 14:35:00
9:55 AM,35.1,32.0,89,30.40,7.0,East,3.5,-,N/A,,Clear,80,2012-11-15 14:55:00
10:15 AM,36.9,32.5,84,30.40,7.0,ENE,3.5,-,N/A,,Clear,70,2012-11-15 15:15:00
10:35 AM,37.9,32.7,81,30.40,10.0,East,3.5,-,N/A,,Clear,80,2012-11-15 15:35:00
10:55 AM,38.7,32.0,77,30.40,10.0,Calm,Calm,-,N/A,,Clear,0,2012-11-15 15:55:00
11:15 AM,39.7,32.2,74,30.39,10.0,East,4.6,-,N/A,,Clear,80,2012-11-15 16:15:00
11:35 AM,41.2,32.0,70,30.38,10.0,ENE,4.6,-,N/A,,Clear,60,2012-11-15 16:35:00
11:55 AM,41.4,31.8,69,30.38,10.0,ENE,4.6,-,N/A,,Clear,60,2012-11-15 16:55:00
12:15 PM,43.0,32.5,67,30.38,10.0,ENE,4.6,-,N/A,,Clear,60,2012-11-15 17:15:00
12:35 PM,44.8,33.8,65,30.37,10.0,NNE,3.5,-,N/A,,Clear,20,2012-11-15 17:35:00
12:55 PM,45.1,34.0,65,30.36,10.0,Calm,Calm,-,N/A,,Clear,0,2012-11-15 17:55:00
1:15 PM,45.1,33.8,65,30.36,10.0,Calm,Calm,-,N/A,,Clear,0,2012-11-15 18:15:00
1:35 PM,47.7,36.0,64,30.35,10.0,East,3.5,-,N/A,,Clear,100,2012-11-15 18:35:00
1:55 PM,47.7,35.2,62,30.35,10.0,Calm,Calm,-,N/A,,Clear,0,2012-11-15 18:55:00
2:15 PM,47.7,35.1,62,30.34,10.0,Calm,Calm,-,N/A,,Clear,0,2012-11-15 19:15:00
2:35 PM,47.7,34.3,60,30.33,10.0,Calm,Calm,-,N/A,,Clear,0,2012-11-15 19:35:00
2:55 PM,47.7,34.7,61,30.33,10.0,North,3.5,-,N/A,,Clear,10,2012-11-15 19:55:00
3:15 PM,47.7,34.2,60,30.33,10.0,Calm,Calm,-,N/A,,Clear,0,2012-11-15 20:15:00
3:35 PM,47.7,34.5,60,30.33,10.0,Calm,Calm,-,N/A,,Clear,0,2012-11-15 20:35:00
3:55 PM,47.7,33.8,59,30.33,10.0,NNE,3.5,-,N/A,,Clear,20,2012-11-15 20:55:00
4:15 PM,47.7,34.7,61,30.33,10.0,Calm,Calm,-,N/A,,Clear,0,2012-11-15 21:15:00
4:35 PM,45.1,34.3,66,30.33,10.0,Calm,Calm,-,N/A,,Clear,0,2012-11-15 21:35:00
4:55 PM,45.1,33.8,65,30.33,10.0,Calm,Calm,-,N/A,,Clear,0,2012-11-15 21:55:00
5:15 PM,44.8,35.8,71,30.33,10.0,Calm,Calm,-,N/A,,Clear,0,2012-11-15 22:15:00
5:35 PM,41.5,34.5,76,30.33,10.0,Calm,Calm,-,N/A,,Clear,0,2012-11-15 22:35:00
5:55 PM,39.2,35.6,87,30.33,10.0,Calm,Calm,-,N/A,,Clear,0,2012-11-15 22:55:00
6:15 PM,37.8,34.5,88,30.34,10.0,NNW,3.5,-,N/A,,Clear,340,2012-11-15 23:15:00
6:35 PM,37.6,34.5,89,30.34,10.0,North,4.6,-,N/A,,Clear,350,2012-11-15 23:35:00
6:55 PM,37.6,34.7,89,30.35,10.0,North,4.6,-,N/A,,Clear,360,2012-11-15 23:55:00
7:15 PM,37.6,34.0,87,30.35,10.0,North,4.6,-,N/A,,Clear,360,2012-11-16 00:15:00
7:35 PM,37.6,34.0,87,30.36,10.0,North,4.6,-,N/A,,Clear,360,2012-11-16 00:35:00
7:55 PM,35.8,32.4,87,30.36,10.0,North,4.6,-,N/A,,Clear,10,2012-11-16 00:55:00
8:15 PM,35.8,32.5,88,30.36,10.0,North,4.6,-,N/A,,Clear,10,2012-11-16 01:15:00
8:35 PM,35.4,32.2,88,30.36,10.0,Calm,Calm,-,N/A,,Clear,0,2012-11-16 01:35:00
8:55 PM,35.1,32.4,90,30.37,10.0,ENE,4.6,-,N/A,,Clear,60,2012-11-16 01:55:00
9:15 PM,35.1,33.1,92,30.37,7.0,Calm,Calm,-,N/A,,Clear,0,2012-11-16 02:15:00
9:35 PM,33.4,32.0,94,30.37,7.0,Calm,Calm,-,N/A,,Clear,0,2012-11-16 02:35:00
9:55 PM,32.5,32.2,99,30.38,5.0,Calm,Calm,-,N/A,,Clear,0,2012-11-16 02:55:00
10:15 PM,32.5,32.0,98,30.38,7.0,Calm,Calm,-,N/A,,Clear,0,2012-11-16 03:15:00
10:35 PM,32.5,32.4,99,30.38,5.0,Calm,Calm,-,N/A,,Clear,0,2012-11-16 03:35:00
10:55 PM,32.5,32.5,100,30.37,5.0,NNE,3.5,-,N/A,,Clear,20,2012-11-16 03:55:00
11:15 PM,32.5,31.8,97,30.38,7.0,North,4.6,-,N/A,,Clear,10,2012-11-16 04:15:00
11:35 PM,32.5,32.0,98,30.38,7.0,NNE,4.6,-,N/A,,Clear,30,2012-11-16 04:35:00
11:55 PM,32.5,32.0,98,30.38,7.0,NE,4.6,-,N/A,,Clear,40,2012-11-16 04:55:00